Location: Bronnegerveen
(52.9548°N, 6.8388°E)
Time: 02:20:30
(UTC+00:00)

Cosmos 1606 - Pass Details

Date: 15 June 2025
Orbit: 377 x 388 km, 82.5° (Epoch: 07 July)

Event Time Altitude Azimuth Distance (km) Brightness Sun altitude
Rises 00:50:52 0° 336° (NNW) 2,264 6.8 -11.9°
Reaches altitude 10° 00:53:16 10° 316° (NW) 1,404 5.3 -11.8°
Maximum altitude 00:55:24 18° 271° (W) 1,029 4.0 -11.7°
Enters shadow 00:56:42 14° 240° (WSW) 1,180 4.1 -11.6°
